Location: Atlantic Beach
(40.5890°N, 73.7290°W)
Time: 13:05:29
(UTC+00:00)

In-Cosmos 22 Rocket - Pass Details

Date: 29 October 2020
Orbit: 790 x 888 km, 81.2° (Epoch: 01 December)

Event Time Altitude Azimuth Distance (km) Brightness Sun altitude
Rises 22:39:26 0° 354° (N) 3,315 7.2 -9.1°
Reaches altitude 10° 22:41:51 10° 358° (N) 2,390 6.5 -9.6°
Maximum altitude 22:47:10 58° 78° (ENE) 946 4.2 -10.6°
Drops below altitude 10° 22:52:34 10° 157° (SSE) 2,431 6.5 -11.6°
Sets 22:55:02 0° 162° (SSE) 3,376 7.2 -12.0°
